Tracking 19969 objects as of 12-Nov-2019
Live streaming from Space Station
objects crossing your sky now
Track the group of recently launched Starlink satellites

ARIANE 2 DEB

Track ARIANE 2 DEB now!


NORAD ID: 40786
Int'l Code: 1989-006CF
Perigee: 618.4 km
Apogee: 35,639.2 km
Inclination: 8.4 °
Period: 636.1 minutes
Semi major axis: 24499 km
RCS: Unknown
Launch date: January 27, 1989
Source: France (FR)
Launch site: FRENCH GUIANA (FRGUI)

Note: This is SATELLITE DEBRIS
aabbcc
Your satellite tracking list
Your tracking list is empty




NASA's NSSDC Master Catalog

Two Line Element Set (TLE):
1 40786U 89006CF  19314.59093926 -.00000241 +00000-0 -46047-3 0  9992
2 40786 008.4350 026.4178 7147173 216.2569 351.3698 02.26391178130510
Source of the keplerian elements: AFSPC